星链-4485 (STARLINK-4485 )

导读

STARLINK-4485是美国SpaceX公司星链(Starlink)低轨互联网星座中的一颗卫星,于2022年8月19日发射升空。作为星链星座组网的组成单元,它属于第二代星链卫星体系,采用紧凑平板设计,配备激光星间链路与相控阵天线技术,为全球提供高速宽带互联网服务,尤其支持偏远地区、海洋的网络覆盖,进一步完善了星链低轨卫星通信网络的全球覆盖能力。

Basic Information
目录编号:
53541
目录名称:
STARLINK-4485
国际标识:
2022-101Q
轨道中心:
EARTH
卫星名称:
星链-4485
卫星全名:
星链-4485 (STARLINK-4485 )
卫星状态:
在轨 (已飞行1398 天)
发射日期:
2022-08-19 UTC
国别 :
美国 (US)
星等 :
--
Orbit Information
数据来源 国际轨道数据 AOE轨道数据
星历时间 2026-06-17T01:54:05+0800
17小时前
查看轨道信息
2026-06-16T00:00:00+0800
1天前
查看轨道信息
半长轴 6917.908km 6917.861km
偏心率 0.0001126 0.0001364
轨道倾角 53.159° 53.159°
近地点辐角 88.330° 76.841°
升交点赤经 349.345° 354.196°
平近点角 271.782° 177.948°
近地点 538.992km 538.78km
远地点 540.55km 540.668km
周期 95.438分钟 95.437分钟
每日圈数 15.088312 15.088464
Detailed Information
固有亮度:
5
最大亮度:
2.5
卫星平台:
Starlink v1.5
覆盖范围:
全球
运营商:
太空探索技术公司
运营商所在国:
美国
制造商(研发单位):
太空探索技术公司
制造商所在国:
美国
使用方式:
暂无
Satellite Introduction
星链(Starlink)计划是由太空探索技术公司(SpaceX)提出的一个巨型低轨卫星互联网星座项目,计划在2019年至2024年间在太空搭建由约1.2万颗卫星组成的“星链”网络,其中1584颗将部署在地球上空550千米处的近地轨道,并从2020年开始工作。该卫星仍在工作。
2D Orbit Map
3D Orbit Map
Orbit Altitude Analysis Chart
Orbit Inclination Analysis Chart
Orbit Comprehensive Analysis Chart
View Comprehensive Chart